Vertical_Velocity
4 6 4 4 1 1 6 1 1 1 2 2 1 1 -0 -0 -0 -1 -2 -2 -1 -3 -3 -2 -1 -2 -2 -1 -1 -2 -2 -3 -15 22 -1 3 1 -7 -4 -2 -6 -6 -5
0 6 1 4 3 2 -1 5 -6 1 -2 -1 1 2 -0 -0 -0 -2 -2 -0 -3 -4 -2 -1 -2 -1 -0 -1 -2 -1 -3 -1 -11 -8 8 7 -1 -2 -2 -9 -5 -1 -4
2 5 1 4 1 3 5 -4 2 -1 1 -0 0 0 -0 -1 -1 -1 -0 -4 -3 -2 -1 -0 0 -1 -1 -3 -2 -2 -1 -2 -2 -12 0 0 2 1 -2 0 -3 -2 -2
5 2 4 3 1 1 4 -2 4 -1 2 0 -1 -0 -0 -2 -0 -0 -3 -2 -1 -0 -1 -2 -2 -2 -2 -2 -3 -1 -1 -3 -1 -4 -7 -3 -1 9 1 -7 -2 -3 -3
0 3 4 1 -0 1 5 1 -1 -0 1 -0 -1 -1 -1 -0 0 -2 -2 -0 -1 0 -1 -2 -2 -2 -1 -1 -3 1 -2 -3 -3 -3 -4 -5 2 2 -1 -1 -4 -4 4
1 4 3 -0 1 4 0 2 1 -0 1 -0 -1 -1 0 -1 -3 0 0 -1 -1 -3 -3 -2 -3 -3 -2 -3 -1 -1 -0 -6 -4 -7 -3 -4 1 -2 0 -2 -2 -6 -15
4 2 -0 3 2 2 1 2 1 0 1 -1 -1 -1 -2 -2 -0 -1 -1 -2 -3 -2 -1 -3 -1 -0 -2 -1 1 -0 2 3 2 -3 -4 -2 -4 -1 -3 -7 -2 -2 -2
-3 2 2 1 1 1 2 1 -1 1 -0 -2 -1 -2 -2 1 -1 -1 -3 -2 -0 -0 -2 -1 -2 -0 1 -3 -1 -1 -2 1 0 -1 -1 0 -1 -1 -3 -5 -3 -10 3
4 2 1 1 1 1 1 -1 -1 -1 -1 -2 -2 -1 1 -1 -0 -2 0 -1 -1 -1 -1 -2 -3 -1 -0 1 -5 -4 -1 2 2 2 1 0 -0 2 1 -3 -2 -8 -3
0 2 0 1 0 1 -2 -1 0 -0 -3 -1 0 1 0 -1 -0 -1 -2 -4 -3 -1 -0 -1 -1 -3 -2 -1 -5 -4 -4 -1 -2 2 6 6 2 1 0 0 -3 -9 -6
5 1 0 -2 -1 0 1 0 -2 -2 -0 0 0 -1 0 1 -2 -1 -2 -3 -4 -2 -2 -1 0 -0 -0 -1 -1 -3 -4 -3 0 -1 -0 -0 -1 -1 -0 0 1 -3 -4
-0 -0 1 -1 1 1 -0 -2 -1 0 -0 -0 1 -1 -2 -3 -3 -2 -3 -2 -2 -5 -2 0 1 1 -0 -1 -2 -1 -0 -1 -0 -1 -2 0 -2 -1 2 -1 1 1 2
-2 0 3 1 -0 -1 -2 -1 -0 -1 0 0 -0 -1 -2 -2 -1 -2 -2 -3 -1 -2 -2 0 -2 -2 -1 0 1 0 -1 -1 -2 -2 -2 -1 -3 -3 0 -2 3 -0 2
3 1 0 -0 -2 -2 -1 -1 0 0 -0 -0 -1 -2 -0 -1 -2 -2 -2 -1 1 0 -1 0 -3 -3 -1 -1 0 2 -2 -2 -2 -2 -1 0 1 -1 1 -2 -4 -3 -3
-1 -1 -2 -1 -1 -0 0 -0 -0 1 -1 -3 -2 -1 -2 -1 -2 -2 -3 -2 -4 -3 -4 -2 -1 0 2 1 0 0 -1 -1 0 0 1 -0 1 0 1 0 -1 -1 -3
-2 -1 -1 -0 0 0 0 2 0 -3 -2 -1 -0 -0 -1 -4 -2 -1 -1 -1 -2 -3 0 -2 -1 -1 -2 -1 -2 0 1 0 0 1 1 -2 -4 -3 -3 1 -2 -2 -4
-1 -0 -0 -0 0 -0 -1 -1 -3 -1 2 5 3 -1 -2 -1 -2 -2 -1 -1 -3 -0 0 -1 -1 -0 -2 -1 -2 -2 -1 -0 -1 -2 -3 -2 -2 -1 -2 0 -0 -1 1
-0 -0 0 -0 -1 -0 -1 -0 -0 0 1 -1 -4 -1 0 -0 -2 -3 -2 -1 2 0 -0 -0 -1 0 -1 -1 -1 -1 0 0 0 -1 -1 -2 0 -2 -1 -1 1 -2 -1
1 0 -0 -0 -0 -1 -1 -0 0 -1 -2 -1 1 2 -0 -0 -1 -2 -2 -2 -0 1 -0 -1 -2 0 1 -0 -0 1 -0 -0 -2 -2 3 2 1 -2 0 -1 -2 3 -1
0 0 1 0 -1 -1 -0 -1 -2 -2 -2 -2 -2 -4 -2 0 -0 1 -0 -3 -2 1 0 -1 -1 -0 -0 -0 1 0 2 1 1 2 3 2 0 -0 -2 -1 -0 -3 1
1 1 -0 -1 -1 -2 -2 -2 -2 -3 -2 -1 -1 -1 -2 -3 -1 -3 -1 -2 -0 -1 1 0 0 0 0 0 1 1 -0 0 2 1 1 1 1 -1 2 1 0 -0 -1
-1 -1 -1 -2 -1 -1 -2 -2 -2 -1 -2 -1 -0 -2 -2 -1 -2 -2 -0 -3 -0 -1 0 2 1 -0 -1 -1 -2 -2 -1 1 3 0 0 4 3 3 1 1 1 -2 -1
-2 -1 -1 -1 -1 -1 -2 -1 -1 -1 -0 -1 -3 -2 -1 -1 0 -2 -1 -2 -0 -0 1 2 1 1 1 1 -0 -1 0 0 -1 2 4 3 3 2 -1 -3 -1 1 1
-1 -1 -1 -1 -2 -2 -2 -2 -1 -1 -2 -1 -1 -1 -2 -0 -1 0 0 -1 -1 -1 1 1 -0 -1 -0 -0 -0 1 1 -1 0 -0 -2 1 3 3 2 1 0 1 1
-1 -1 -1 -2 -1 -1 -1 -2 -2 -2 -2 -1 -1 -0 -1 -0 0 0 -1 -1 -1 -0 0 0 0 0 1 1 0 1 2 2 3 3 2 3 2 2 1 1 2 1 1
-1 -2 -2 -1 -1 -2 -2 -1 -1 -1 -1 -2 -1 -0 -1 -1 0 1 0 -0 -1 -0 0 0 1 0 -0 1 -0 0 1 2 1 -1 1 2 2 2 0 1 0 -0 0
Height
3016 3023 3029 3035 3039 3043 3046 3048 3051 3055 3055 3058 3060 3060 3061 3061 3060 3057 3054 3050 3046 3041 3036 3031 3026 3019 3013 3007 3000 2994 2987 2980 2970 2964 2955 2946 2938 2930 2923 2915 2909 2905 2900
3011 3019 3025 3030 3034 3038 3040 3044 3047 3049 3052 3054 3056 3056 3056 3055 3054 3050 3047 3042 3038 3032 3027 3021 3015 3009 3003 2997 2990 2983 2976 2968 2958 2949 2941 2933 2924 2917 2909 2902 2898 2894 2889
3008 3015 3022 3026 3030 3033 3037 3039 3042 3045 3048 3050 3051 3051 3051 3049 3046 3043 3038 3034 3029 3024 3018 3012 3006 3000 2994 2987 2979 2971 2963 2954 2946 2936 2927 2920 2913 2906 2899 2893 2888 2886 2881
3005 3012 3017 3022 3026 3029 3033 3037 3038 3042 3044 3045 3046 3046 3044 3042 3039 3035 3031 3026 3021 3015 3009 3003 2997 2991 2984 2976 2968 2959 2951 2942 2934 2924 2916 2908 2902 2897 2890 2885 2879 2877 2873
3003 3009 3014 3019 3023 3027 3030 3033 3036 3038 3040 3041 3041 3040 3038 3035 3031 3027 3023 3018 3012 3006 3001 2995 2988 2981 2973 2965 2956 2947 2938 2930 2922 2913 2905 2898 2893 2889 2882 2877 2870 2866 2866
3001 3007 3012 3016 3021 3025 3028 3030 3033 3034 3035 3036 3035 3034 3031 3027 3024 3020 3014 3009 3004 2998 2993 2986 2978 2970 2961 2952 2944 2936 2928 2919 2911 2903 2896 2890 2886 2881 2874 2870 2863 2858 2854
3000 3006 3011 3016 3019 3022 3025 3028 3030 3031 3031 3031 3029 3027 3024 3020 3016 3011 3006 3001 2996 2990 2982 2975 2967 2959 2950 2941 2933 2925 2918 2912 2904 2896 2888 2885 2877 2874 2867 2862 2860 2853 2847
2999 3005 3010 3014 3017 3020 3023 3025 3026 3026 3026 3025 3023 3020 3016 3013 3007 3003 2998 2992 2986 2980 2973 2965 2956 2948 2940 2931 2921 2914 2908 2903 2897 2890 2883 2878 2873 2867 2861 2854 2849 2844 2842
2999 3004 3009 3012 3016 3018 3020 3022 3022 3021 3020 3018 3016 3013 3009 3004 3000 2995 2990 2983 2977 2970 2963 2955 2946 2936 2928 2920 2912 2905 2900 2896 2890 2884 2878 2873 2868 2863 2856 2847 2844 2837 2831
2998 3004 3008 3012 3014 3016 3017 3018 3017 3016 3014 3012 3010 3006 3002 2998 2993 2987 2981 2975 2967 2960 2953 2944 2936 2927 2919 2911 2904 2897 2891 2887 2882 2878 2874 2869 2862 2856 2850 2844 2836 2828 2823
3000 3004 3007 3010 3012 3013 3013 3012 3011 3010 3008 3006 3003 3000 2995 2990 2984 2979 2973 2965 2957 2949 2942 2935 2927 2919 2911 2903 2896 2890 2884 2879 2876 2871 2866 2861 2855 2849 2844 2838 2832 2824 2817
3001 3003 3006 3008 3009 3009 3009 3008 3007 3005 3003 3000 2997 2992 2987 2982 2976 2971 2965 2957 2949 2940 2933 2926 2919 2910 2903 2895 2889 2884 2879 2874 2869 2864 2859 2854 2848 2843 2838 2832 2826 2820 2814
3001 3003 3004 3005 3005 3005 3004 3004 3002 3000 2997 2994 2990 2986 2981 2975 2969 2962 2955 2948 2940 2932 2925 2918 2910 2902 2894 2889 2884 2878 2874 2869 2863 2858 2853 2848 2842 2836 2831 2825 2821 2814 2809
3000 3001 3002 3002 3002 3001 3001 3000 2998 2995 2992 2988 2984 2980 2975 2968 2961 2954 2947 2940 2932 2924 2917 2909 2901 2895 2888 2884 2879 2874 2869 2863 2857 2851 2846 2841 2836 2830 2825 2818 2812 2807 2802
2998 2999 2999 2999 2999 2998 2997 2995 2992 2990 2986 2982 2977 2972 2966 2960 2953 2945 2938 2930 2921 2915 2907 2901 2894 2889 2884 2880 2875 2869 2864 2858 2853 2848 2842 2836 2831 2825 2820 2814 2808 2802 2795
2996 2997 2996 2996 2995 2994 2993 2991 2988 2984 2980 2975 2970 2964 2958 2951 2943 2936 2929 2922 2915 2907 2900 2893 2888 2883 2879 2875 2870 2866 2860 2854 2849 2843 2838 2832 2826 2820 2814 2810 2803 2797 2790
2994 2994 2994 2993 2992 2990 2988 2986 2982 2978 2974 2969 2964 2957 2951 2944 2936 2928 2921 2914 2907 2900 2893 2888 2883 2879 2875 2870 2865 2860 2856 2851 2845 2839 2833 2827 2821 2815 2809 2804 2798 2792 2786
2992 2992 2991 2990 2988 2986 2984 2980 2976 2972 2967 2962 2955 2949 2944 2937 2929 2921 2914 2907 2901 2894 2888 2884 2880 2875 2871 2866 2861 2856 2852 2846 2841 2835 2830 2823 2816 2809 2804 2798 2793 2786 2781
2990 2989 2988 2986 2984 2981 2978 2974 2971 2966 2961 2956 2951 2945 2937 2930 2922 2915 2907 2900 2893 2888 2884 2880 2876 2872 2868 2863 2858 2853 2847 2842 2836 2831 2825 2818 2812 2805 2799 2793 2788 2783 2776
2987 2986 2984 2982 2980 2976 2973 2969 2965 2960 2954 2948 2942 2934 2927 2921 2914 2908 2902 2895 2889 2885 2881 2878 2873 2869 2865 2860 2855 2850 2845 2839 2834 2828 2821 2815 2809 2802 2795 2789 2783 2778 2774
2984 2982 2980 2978 2975 2972 2968 2963 2958 2953 2947 2941 2934 2926 2919 2912 2906 2900 2894 2889 2884 2881 2878 2875 2871 2867 2863 2858 2853 2848 2843 2837 2831 2825 2819 2812 2805 2798 2792 2786 2781 2776 2771
2981 2979 2977 2974 2970 2966 2962 2957 2951 2946 2939 2932 2926 2920 2914 2908 2901 2895 2889 2884 2881 2878 2875 2873 2869 2865 2861 2856 2852 2847 2841 2835 2829 2823 2816 2809 2801 2795 2789 2784 2778 2773 2769
2977 2975 2972 2969 2964 2960 2955 2950 2945 2938 2931 2925 2918 2913 2907 2901 2895 2890 2885 2881 2879 2876 2873 2870 2868 2864 2860 2855 2850 2845 2839 2833 2827 2821 2814 2806 2799 2793 2787 2782 2777 2773 2769
2973 2970 2967 2963 2959 2954 2949 2943 2937 2930 2923 2917 2911 2905 2899 2894 2889 2885 2881 2879 2877 2874 2872 2869 2866 2863 2859 2855 2851 2845 2839 2833 2827 2820 2813 2806 2799 2793 2788 2783 2778 2774 2769
2969 2966 2962 2958 2953 2948 2942 2936 2929 2923 2916 2910 2903 2897 2892 2887 2883 2880 2878 2877 2874 2873 2871 2868 2866 2863 2859 2855 2850 2845 2840 2834 2828 2822 2815 2808 2801 2796 2790 2785 2781 2776 2771
2964 2961 2956 2952 2946 2941 2935 2928 2922 2915 2909 2902 2896 2890 2885 2881 2878 2876 2875 2874 2873 2872 2870 2868 2866 2863 2859 2855 2850 2846 2840 2835 2830 2823 2816 2810 2804 2798 2793 2788 2783 2779 2774